Погода в Сосьве

Погода в Сосьве : погода сейчас, прогноз погоды и архив. Всё, что Вы хотите узнать о погоде в Сосьве!

Хотите узнать прогноз погоды в Сосьве? Тогда Вам сюда: Погода в Сосьве

Поиск расширенной информации на нашем сайте:

Другие новости

Новости СМИ2

Главная страница сайта

Новости сайта

03.07.2017

Напоминаем, что на нашем специализированном сайте Метеоцентр.Азия вы можете получить высокодетализированные автоматические прогнозы погоды по пунктам России, СНГ и мира в авиационном формате (включающие направление и скорость ветра, видимость, явления погоды, количество и форму облачности, нижнюю и верхнюю границу облачности).


Погода в Сосьве - сегодня

Время (UTC), дата Ветер
(°,м/с) 
Видим.   Явления Облачность Т
(°С)
Тd
(°С)
f(%) Тe
(°С)
Pmin
(гПа)
dP
(гПа)
Po
(мм)
O2
(г/м3)
Тmin Tmax R s Состояние
почвы
15 15.02.18 тихо ()   20000 м    ясно 
-20.4 -23 80 -20  1030.6  -0.3  770  337    -13       
18 15.02.18 030 (СВ) 20000 м    ясно 
-21.9 -24.6 79 -22  1030.3  -0.3  770  339           
21 15.02.18 тихо ()   20000 м  [диам. изморози 1 мм]  ясно 
-23.7 -26.7 76 -24  1030.2  0.1  770  341           
00 16.02.18 тихо ()   20000 м  [диам. изморози 1 мм]  ясно 
-24.8 -27.9 75 -25  1030.3  0.1  770  343           
03 16.02.18 тихо ()   20000 м  [диам. изморози 1 мм]  10/0 верхняя 
[Cc]
-24.2 -27.2 76 -24  1030.3  770  342  -25.6      58  равномерный
сухой снег
100% 
06 16.02.18 040 (СВ) 20000 м  [диам. изморози 1 мм]  8/0 средняя 
[Ac trans]
-18.6 -21.2 80 -19  1029.8  -0.4  770  334           
09 16.02.18 230 (ЮЗ) 20000 м    9/0 средняя 
[Ac trans]
-12.5 -15.9 76 -12  1029.4  -0.3  769  326           
12 16.02.18 250 (З) 20000 м    10/0 средняя 
[As op]
-7.1 -11.3 72 -9  1028.8  -0.5  769  319           
18 16.02.18 260 (З) 20000 м    10/0 средняя 
[As op]
-7.8 -12.2 71 -11  1027.4  -0.9  768  320           
21 16.02.18 260 (З) 20000 м    10/0 средняя 
[As op]
-9.9 -14.1 71 -13  1024.9  -0.2  766  322           
00 17.02.18 250 (З) 20000 м    10/0 средняя 
[As op]
-9.7 -14 71 -13  1026.6  -0.6  767  322           
03 17.02.18 260 (З) 20000 м    10/0 средняя 
[As op]
-10 -14.8 68 -14  1025.8  -0.8  767  322  -10.2      58  равномерный
сухой снег
100% 
06 17.02.18 270 (З) 20000 м    6/0 средняя 
[Ac trans]
-9.5 -14.5 67 -12  1025.1  -0.7  766  321  -10.5         
09 17.02.18 260 (З) 20000 м    4/0 верхняя 
[Ci fib]
-7.8 -13.7 63 -11  1024.4  -0.7  766  319           
12 17.02.18 240 (ЮЗ) 20000 м    8/0 средняя 
[Ac trans]
-8.9 -13.6 69 -11  1023.3  -1.1  765  320           
18 17.02.18 260 (З) 20000 м    ясно 
-9.2 -13.7 70 -13  1022.1  -0.3  764  320           
21 17.02.18 260 (З) н/о    н/о 
-9.4 -14.1 69 -11  1021.8  -0.3  764  320           
00 18.02.18 260 (З) н/о    н/о 
-9.4 -13.9 70 -13  1021.1  -0.8  763  320           
03 18.02.18 260 (З) 20000 м    4/0 средняя 
[Ac trans]
-8.7 -13.5 68 -12  1020.6  -0.4  763  319  -9.9      58  равномерный
сухой снег
100% 
06 18.02.18 270 (З) 20000 м    10/0 средняя, верхняя 
[Ac trans|Cc]
-8.7 -13.4 69 -12  1020.9  0.2  763  319           
09 18.02.18 260 (З) 20000 м    3/0 средняя 
[Ac trans]
-8.2 -13.5 66 -10  1021.3  0.4  763  318           
12 18.02.18 250 (З) 20000 м    4/0 средняя, верхняя 
[Ac trans|Ci fib]
-7.7 -13.4 64 -10  1021.1  -0.1  763  318           
18 18.02.18 270 (З) 20000 м    ясно 
-9.9 -13.8 73 -12  1020.8  -0.3  763  320           
21 18.02.18 290 (З) 20000 м    ясно 
-13.1 -15.6 81 -13  1021.4  0.6  763  324           
00 19.02.18 тихо ()   20000 м    ясно 
-16.8 -18.8 84 -17  1022.1  0.6  764  330           
Время (UTC), дата Ветер
(°,м/с) 
Видим.   Явления Облачность Т
(°С)
Тd
(°С)
f(%) Тe
(°С)
Pmin
(гПа)
dP
(гПа)
Po
(мм)
O2
(г/м3)
Тmin Tmax R s Состояние
почвы

Для получения пояснительной информации подведите курсор к названию столбца.

ПОГОДА в Сосьве - архив

Всё, что Вы хотите узнать о погоде в Сосьве - удобно и подробно!

Выберите нужную дату (начиная с 1 января 2015* года) и нажмите кнопку "Найти".
Будут отображены архивные сводки погоды по пункту Сосьва, начиная с указанной даты.


Отображать данные в формате CSV (для использования в таблицах Excel)


Внимание! Наш архив погоды предназначен исключительно для личного некоммерческого использования в познавательных целях. Если Вам необходимы официальные справки о состоянии погоды (для производственных, юридических, коммерческих и т.п. целей), обращайтесь в органы Росгидромета.

*Примечание: данная дата относится к архиву по метеостанциям СССР (Россия, СНГ, Балтия).
Архив по метеостанциям Зарубежной Европы и Азии (кроме Китая) хранится 10 дней, по другим регионам земного шара (Китай, Африка, Америка, Австралия, Океания) - 1 день.

Сосьва - район местоположения метеостанции


Название, широта, долгота, высота метеостанции:
Сосьва 63.6°ш. 62.1°д. 28 м над ур. моря [Российская Федерация]

Дополнительная информация

В oтличие oт бoльшинства пoгoдных сайтoв мы публикуем пoдрoбную метеoинфoрмацию в детальнoм прoфессиoнальнoм фoрмате.

Характеристики температуры и влажнoсти вoздуха измеряются на высoте 2 м в тени вдали oт зданий и деревьев.
Скoрoсть ветра измеряется на высoте 10 м (на урoвне рoста челoвека скoрoсть ветра ниже в 1.5-2 раза). Если метеoстанция нахoдится в гoрoде или в лесу, тo скoрoсть ветра занижена на 2-4 м/с пo сравнению с oткрытым местoм. Скoрoсть ветра над акватoриями крупных рек и oзёр, а также на вершинах хoлмoв на 2-5 м/с выше, чем в oбычных услoвиях.
Атмoсфернoе давление в разных тoчках местнoсти мoжет значительнo oтличаться oт давления на метеoстанции, в зависимoсти oт услoвий рельефа (при пoдъёме на 10 м давление пoнижается примернo на 1 мм рт.ст.).